Location: Auckland
(36.8670°S, 174.7670°E)
Time: 23:25:28
(UTC+12:00)

Courier 1B - Visible Passes

Search period start: 20 July 2019 00:00
Search period end: 30 July 2019 00:00
Orbit: 963 x 1209 km, 28.3° (Epoch: 19 July)

Date Brightness Start Highest point End Pass type
(mag) Time Alt. Az. Time Alt. Az. Time Alt. Az.
20 Jul 9.5 17:45:27 10° N 17:49:04 15° NNE 17:52:44 10° ENE visible
20 Jul 8.5 19:36:24 10° NW 19:42:14 33° NNE 19:43:02 32° NNE visible
20 Jul 10.1 21:29:22 10° WNW 21:29:56 12° WNW 21:29:56 12° WNW visible
21 Jul 8.8 18:43:12 10° NW 18:48:39 28° NNE 18:52:40 16° ENE visible
21 Jul 9.0 20:35:51 10° WNW 20:39:34 30° NW 20:39:34 30° NW visible
22 Jul 9.1 17:50:08 10° NNW 17:55:06 23° NNE 18:00:12 10° ENE visible
22 Jul 8.3 19:42:23 10° WNW 19:48:26 39° N 19:49:11 38° NNE visible
22 Jul 10.2 21:35:47 10° WNW 21:36:05 11° WNW 21:36:05 11° WNW visible
23 Jul 8.5 18:48:58 10° NW 18:54:50 35° N 18:58:49 19° ENE visible
23 Jul 9.0 20:42:10 10° WNW 20:45:43 29° NW 20:45:43 29° NW visible
24 Jul 8.8 17:55:39 10° NW 18:01:15 31° NNE 18:07:00 10° ENE visible
24 Jul 8.2 19:48:36 10° WNW 19:54:42 41° N 19:55:21 40° NNE visible
25 Jul 8.4 18:55:04 10° WNW 19:01:04 40° N 19:05:00 21° ENE visible
25 Jul 9.2 20:48:39 10° WNW 20:51:55 26° NW 20:51:55 26° NW visible
26 Jul 8.6 18:01:34 10° WNW 18:07:28 37° N 18:13:29 10° ENE visible
26 Jul 8.4 19:54:58 10° WNW 20:00:58 38° N 20:01:35 37° N visible
27 Jul 8.4 19:01:21 10° WNW 19:07:21 39° N 19:11:18 20° NE visible
27 Jul 9.4 20:55:20 10° WNW 20:58:12 21° NW 20:58:12 21° NW visible
28 Jul 8.5 18:07:45 10° WNW 18:13:44 40° N 18:19:49 10° ENE visible
28 Jul 8.7 20:01:33 10° WNW 20:07:11 31° NNW 20:07:58 30° N visible
29 Jul 8.7 19:07:48 10° WNW 19:13:36 35° N 19:17:46 18° NE visible
29 Jul 9.7 21:02:29 10° WNW 21:04:40 16° NW 21:04:40 16° NW visible
